Location: Nantong Television Tower
(32.0188°N, 120.8512°E)
Time: 23:27:20
(UTC+08:00)

Vanguard 3 - Visible Passes

Search period start: 16 September 2014 00:00
Search period end: 26 September 2014 00:00
Orbit: 507 x 3279 km, 33.4° (Epoch: 16 September)

Date Brightness Start Highest point End Pass type
(mag) Time Alt. Az. Time Alt. Az. Time Alt. Az.
16 Sep 11.1 19:40:18 10° WSW 19:46:39 13° SW 19:52:10 10° SSW visible
17 Sep 10.9 18:19:52 10° W 18:34:05 27° SW 18:45:13 10° S visible
18 Sep 11.3 19:32:06 10° WSW 19:33:49 10° SW 19:35:28 10° SW visible
19 Sep 11.2 18:07:56 10° W 18:21:04 23° SW 18:31:58 10° S visible
21 Sep 11.4 17:56:27 10° W 18:08:03 19° SW 18:18:15 10° S visible
